DIRECTV 9S

Last updated on Tue Jul 01 2025 00:02:44 GMT+0000 (Coordinated Universal Time)

1 29494U 06043A 25181.54781128 -.00000114 00000+0 00000+0 0 9999 2 29494 1.5126 85.2939 0002916 17.5069 272.0530 1.00271199 47850
UTC large
Height (km)
Speed (km/s)
/
Latitude / Longitude
Inclination (degrees)
Orbital Period (minutes)
Azimuth
Elevation
Range (km)
Doppler Factor

Next 0 passes for location: London (51.5072 / 0.1276)

Sorry there are no passes over London.